CAPE
0 0 0 0 0 0 0 0 0 0 0 0 0 0 0 0 0 14 748 844 777 1795 2007 1878 2271 2342 2311 2250 2244 2241 2099 1925 1855 1608 1229 985 844 735 451 568 99 236 316 566 628 524 426 379 411
2 0 0 0 0 0 0 0 0 0 0 0 0 0 0 0 0 430 731 871 840 1938 1930 1704 2112 2281 2324 2179 2187 2119 2080 1922 1807 1643 1384 1093 879 633 866 525 384 650 439 404 468 493 426 330 234
2 0 0 0 0 0 0 0 0 0 0 0 0 0 0 0 0 0 485 885 810 2035 1714 1614 2039 2287 2389 2208 2162 2008 1818 1836 1707 1478 1242 1112 1098 893 286 807 975 819 751 459 385 367 452 282 248
1 0 0 0 0 0 0 0 0 0 0 0 0 0 0 0 0 0 1053 929 839 1995 1702 1739 2015 2195 2111 2241 2113 1926 1795 1704 1537 1384 1292 1124 818 655 425 1003 713 872 533 415 266 241 158 94 92
2 0 0 0 0 0 0 0 0 0 0 0 0 0 0 0 26 869 1095 903 931 1837 1776 1531 2067 1981 2101 2202 1980 1790 1626 1585 1479 1267 1055 864 610 488 699 909 596 609 579 428 162 54 53 26 40
2 0 0 0 0 0 0 0 0 0 0 0 0 0 0 0 296 699 1121 960 856 1642 1776 1533 1828 2032 2098 1993 1842 1666 1520 1398 1146 1028 740 543 448 505 818 758 627 335 255 235 77 32 25 1 3
4 0 0 0 0 0 0 0 0 0 0 0 0 0 0 0 7 879 1130 1147 929 1536 1492 1582 1532 1811 1626 1490 1297 1150 1119 971 832 689 352 301 212 494 688 543 410 344 155 158 28 11 3 0 0
27 0 0 0 0 0 0 0 0 0 0 0 0 0 0 0 0 85 1013 1156 1367 1424 1454 1613 1193 1678 1562 1102 777 647 656 470 323 298 71 39 39 297 418 322 317 272 166 103 29 11 0 0 6
16 0 0 0 0 0 0 0 0 0 0 0 0 0 0 0 5 378 576 1087 1467 1410 1341 1131 1340 1581 1475 993 582 349 304 107 114 41 14 18 28 68 52 47 88 109 95 92 22 9 0 0 0
0 0 0 0 0 0 0 0 0 0 0 0 0 0 0 0 226 859 852 1266 1661 1395 1315 705 1744 1555 1224 748 386 42 52 12 48 16 8 8 20 59 111 37 43 77 44 31 4 0 0 0 0
0 0 0 0 0 0 0 0 0 0 0 0 0 0 0 0 49 722 938 1124 1479 1541 1244 1221 1895 1624 989 649 334 156 64 24 36 4 16 14 37 113 81 29 23 6 0 2 3 21 8 4 0
0 0 0 0 17 0 0 0 0 1 0 0 0 0 0 0 11 782 936 951 1436 1536 1475 1816 1764 1262 909 688 593 110 35 133 8 2 4 38 98 105 103 22 7 0 5 1 27 5 11 1 0
0 0 0 0 0 6 4 0 0 0 0 2 0 0 0 0 0 506 739 1400 1456 1581 1621 2079 1639 1164 1015 684 1034 173 13 21 3 3 6 22 58 49 38 8 8 3 1 8 6 1 1 2 1
0 0 0 0 0 0 0 0 3 0 0 3 3 0 0 0 0 106 887 1176 1330 1380 1720 1983 1278 1338 1361 794 1062 480 29 63 0 1 25 15 54 31 22 19 1 1 1 1 0 0 0 0 1
0 0 0 0 0 0 0 0 0 0 0 4 14 0 18 0 0 49 697 1104 1472 1045 1716 1624 1275 1261 1173 840 906 783 405 86 13 3 25 27 23 13 19 4 0 0 0 0 0 0 0 0 0
0 0 0 0 0 0 0 0 0 0 1 0 0 19 3 0 0 0 45 1146 1457 1327 1275 1560 1166 1080 1168 767 1126 1035 731 229 160 0 16 18 3 16 19 7 6 1 0 0 0 0 0 0 0
6 0 0 0 0 0 0 0 0 0 2 0 0 1 7 0 0 0 0 780 1404 1100 942 1139 1083 1143 1153 880 913 641 472 690 183 2 8 6 6 18 15 6 1 0 0 0 0 0 0 0 0
0 0 0 0 0 11 0 0 0 0 1 7 8 2 1 1 0 0 0 10 1404 1454 863 1062 798 752 1138 1026 992 567 556 445 560 66 0 4 2 6 1 3 6 1 0 0 0 0 0 0 0
0 0 0 0 19 18 0 0 0 0 0 9 7 2 14 0 0 0 0 0 229 1254 807 841 748 735 742 846 742 639 677 67 281 96 0 12 1 5 3 2 4 3 0 0 0 0 0 0 0
0 0 0 0 22 29 0 0 5 0 0 0 7 29 22 1 0 0 0 0 8 1297 842 688 504 399 497 671 651 610 459 171 67 146 1 5 1 5 5 1 4 1 0 0 0 0 0 0 0
0 0 0 0 0 0 0 0 0 7 1 0 0 8 19 5 0 0 0 0 5 1161 550 518 403 604 675 328 506 532 395 191 63 84 28 0 0 2 4 7 2 1 0 0 0 0 0 0 0
0 0 0 0 0 0 0 0 0 15 11 0 0 0 0 0 0 0 0 1 0 256 640 353 92 504 474 508 266 402 124 66 25 59 141 13 0 0 4 3 7 3 0 0 0 0 0 0 0
0 0 0 0 0 0 0 0 0 21 0 1 0 0 0 0 0 0 0 0 0 51 959 385 287 254 541 585 282 52 245 142 54 40 70 35 5 0 0 8 5 2 0 0 0 0 0 0 0
0 0 0 2 0 0 0 0 0 0 0 11 14 0 0 0 0 0 1 0 0 149 522 338 41 222 364 591 455 251 282 183 44 38 54 42 48 26 0 3 2 1 0 0 0 0 0 0 0
0 0 0 0 0 0 0 0 0 0 0 0 0 0 0 0 1 4 0 0 0 24 345 234 42 47 136 734 411 199 302 42 62 34 46 50 19 8 0 0 0 0 0 0 0 0 0 0 0
0 0 0 0 0 0 0 0 0 0 0 0 0 0 0 0 18 5 0 0 0 0 732 275 74 88 97 140 369 350 210 49 89 87 65 48 39 27 0 0 3 0 0 0 0 0 0 0 0
0 0 0 0 0 0 0 0 0 0 0 0 0 0 0 0 19 22 0 0 0 0 294 548 48 50 22 32 392 187 183 85 92 73 102 89 137 108 43 0 0 0 0 0 0 0 0 0 0
0 0 0 0 0 0 0 0 0 0 0 0 0 0 0 0 20 11 0 0 0 12 235 197 104 71 0 15 35 50 50 15 73 37 71 38 99 108 93 0 0 0 0 0 0 0 0 0 0
0 0 0 0 0 0 0 0 0 0 0 0 0 0 0 0 5 0 0 0 0 7 201 88 52 66 36 30 23 65 18 2 1 12 45 0 6 67 7 0 0 0 0 0 0 0 0 0 0
0 0 0 0 0 0 0 0 0 0 0 7 17 21 9 0 0 0 0 0 0 79 171 1 58 36 40 19 9 42 2 33 32 64 46 15 11 36 56 0 0 3 1 0 0 0 0 0 0
CIN
-0 -0 -0 -0 -0 -0 -0 -0 -0 -0 -0 -0 -0 -0 -0 -0 -0 -2 -155 -147 -146 -100 -109 -95 -28 -0 -0 -0 -0 -0 -0 -0 -0 -0 -0 -0 -0 -0 -6 -2 -79 -42 -20 -0 -0 -0 -1 -0 -0
-0 -0 -0 -0 -0 -0 -0 -0 -0 -0 -0 -0 -0 -0 -0 -0 -0 -97 -106 -130 -125 -47 -88 -97 -36 -3 -0 -0 -0 -0 -0 -0 -0 -0 -0 -0 -0 -1 -0 -0 -12 -1 -6 -5 -2 -0 -0 -7 -12
-0 -0 -0 -0 -0 -0 -0 -0 -0 -0 -0 -0 -0 -0 -0 -0 -0 -0 -54 -133 -134 -32 -77 -96 -36 -2 -0 -0 -0 -0 -0 -0 -0 -0 -0 -0 -0 -0 -46 -0 -0 -0 -0 -11 -19 -11 -0 -29 -30
-0 -0 -0 -0 -0 -0 -0 -0 -0 -0 -0 -0 -0 -0 -0 -0 -0 -0 -93 -139 -102 -36 -78 -89 -30 -1 -0 -0 -0 -0 -0 -0 -0 -0 -0 -0 -0 -3 -22 -0 -1 -0 -12 -19 -57 -62 -98 -44 -40
-0 -0 -0 -0 -0 -0 -0 -0 -0 -0 -0 -0 -0 -0 -0 -0 -23 -101 -81 -106 -78 -13 -65 -96 -25 -4 -0 -0 -0 -0 -0 -0 -0 -0 -1 -3 -8 -22 -0 -0 -1 -5 -8 -26 -111 -24 -1 -7 -2
-0 -0 -0 -0 -0 -0 -0 -0 -0 -0 -0 -0 -0 -0 -0 -0 -83 -70 -65 -60 -33 -2 -54 -69 -30 -1 -0 -0 -0 -0 -0 -0 -2 -4 -5 -14 -22 -24 -0 -0 -0 -38 -64 -84 -120 -3 -12 -0 -24
-0 -0 -0 -0 -0 -0 -0 -0 -0 -0 -0 -0 -0 -0 -0 -0 -50 -22 -31 -27 -14 -10 -59 -38 -31 -2 -1 -2 -1 -3 -2 -7 -7 -10 -44 -57 -90 -29 -5 -9 -23 -32 -105 -119 -1 -3 -0 -0 -0
-0 -0 -0 -0 -0 -0 -0 -0 -0 -0 -0 -0 -0 -0 -0 -0 -0 -32 -22 -10 -5 -15 -5 -16 -45 -5 -0 -0 -37 -38 -21 -22 -65 -95 -263 -340 -118 -60 -47 -64 -57 -64 -111 -108 -3 -0 -0 -0 -25
-0 -0 -0 -0 -0 -0 -0 -0 -0 -0 -0 -0 -0 -0 -0 -0 -1 -30 -18 -1 -25 -31 -4 -16 -23 -3 -0 -12 -42 -104 -87 -211 -210 -278 -61 -16 -3 -195 -149 -153 -131 -111 -0 -0 -15 -0 -0 -0 -0
-0 -0 -0 -0 -0 -0 -0 -0 -0 -0 -0 -0 -0 -0 -0 -0 -50 -30 -11 -1 -10 -15 -19 -32 -0 -5 -10 -53 -71 -247 -238 -0 -274 -19 -7 -0 -0 -259 -184 -1 -2 -0 -0 -1 -0 -0 -0 -0 -0
-0 -0 -0 -0 -0 -0 -0 -0 -0 -0 -0 -0 -0 -0 -0 -0 -2 -12 -3 -0 -25 -14 -6 -27 -0 -0 -37 -77 -105 -150 -222 -0 -24 -9 -0 -0 -117 -197 -283 -0 -9 -4 -0 -0 -10 -35 -2 -0 -0
-0 -0 -0 -0 -0 -0 -0 -0 -0 -0 -0 -0 -0 -0 -0 -0 -0 -0 -1 -0 -1 -1 -0 -2 -0 -1 -30 -65 -71 -171 -246 -178 -13 -1 -0 -0 -206 -219 -184 -1 -9 -1 -22 -1 -1 -1 -1 -0 -0
-0 -0 -0 -0 -0 -0 -0 -0 -0 -0 -0 -2 -0 -0 -0 -0 -0 -0 -0 -4 -3 -1 -1 -0 -0 -0 -28 -43 -25 -122 -1 -211 -3 -3 -0 -0 -1 -42 -174 -2 -2 -0 -0 -0 -0 -0 -0 -1 -0
-0 -0 -0 -0 -0 -0 -0 -0 -1 -0 -2 -9 -5 -0 -0 -0 -0 -7 -0 -6 -2 -2 -0 -0 -0 -1 -4 -31 -17 -70 -146 -135 -0 -0 -0 -0 -1 -0 -0 -0 -2 -0 -0 -0 -0 -0 -0 -0 -0
-0 -0 -0 -0 -0 -0 -0 -0 -0 -0 -0 -0 -5 -0 -0 -0 -0 -2 -1 -0 -0 -7 -0 -0 -0 -0 -0 -14 -15 -33 -65 -95 -74 -3 -0 -0 -0 -0 -0 -0 -0 -0 -0 -0 -0 -0 -0 -0 -0
-0 -0 -0 -0 -0 -0 -0 -0 -0 -0 -0 -0 -0 -15 -0 -1 -0 -0 -0 -1 -0 -6 -1 -0 -0 -0 -1 -17 -0 -7 -13 -54 -36 -0 -0 -5 -0 -0 -0 -2 -0 -0 -0 -0 -0 -0 -0 -0 -0
-0 -0 -0 -0 -0 -0 -0 -0 -0 -2 -3 -0 -0 -1 -0 -0 -0 -0 -0 -1 -0 -4 -3 -2 -0 -0 -1 -5 -0 -9 -15 -9 -28 -11 -1 -10 -0 -0 -2 -0 -1 -0 -0 -0 -0 -0 -0 -0 -0
-0 -0 -0 -0 -0 -0 -0 -0 -0 -0 -2 -2 -3 -1 -0 -0 -0 -0 -0 -1 -2 -1 -11 -1 -1 -0 -0 -2 -0 -4 -3 -3 -2 -56 -0 -3 -2 -9 -4 -0 -0 -0 -0 -0 -0 -0 -0 -0 -0
-0 -0 -0 -0 -0 -1 -0 -0 -0 -0 -0 -2 -4 -8 -0 -0 -0 -0 -0 -0 -1 -3 -5 -0 -0 -0 -5 -0 -0 -0 -0 -11 -2 -28 -0 -0 -1 -0 -0 -0 -0 -0 -0 -0 -0 -0 -0 -0 -0
-0 -0 -0 -0 -1 -1 -0 -0 -0 -0 -0 -0 -2 -5 -2 -1 -0 -0 -0 -0 -0 -0 -2 -2 -9 -16 -6 -10 -2 -7 -1 -19 -61 -39 -5 -1 -0 -0 -0 -0 -0 -0 -0 -0 -0 -0 -0 -0 -0
-0 -0 -0 -0 -0 -0 -0 -0 -0 -0 -0 -0 -0 -14 -5 -1 -0 -0 -0 -0 -1 -1 -9 -0 -1 -0 -0 -14 -0 -0 -0 -1 -12 -9 -44 -0 -0 -0 -0 -0 -0 -0 -0 -0 -0 -0 -0 -0 -0
-0 -0 -0 -0 -0 -0 -0 -0 -0 -0 -0 -0 -0 -0 -0 -0 -0 -0 -0 -0 -0 -56 -6 -10 -3 -0 -0 -2 -9 -0 -20 -12 -23 -38 -42 -60 -0 -0 -0 -0 -0 -0 -0 -0 -0 -0 -0 -0 -0
-0 -0 -0 -0 -0 -0 -0 -0 -0 -1 -0 -0 -0 -0 -0 -0 -0 -0 -0 -0 -0 -36 -0 -2 -1 -0 -0 -0 -2 -10 -14 -1 -36 -47 -36 -51 -68 -0 -0 -0 -0 -0 -0 -0 -0 -0 -0 -0 -0
-0 -0 -0 -1 -0 -0 -0 -0 -0 -0 -0 -5 -12 -0 -0 -0 -0 -0 -0 -0 -0 -14 -1 -7 -0 -0 -0 -0 -0 -8 -3 -0 -11 -27 -33 -40 -49 -64 -0 -0 -0 -0 -0 -0 -0 -0 -0 -0 -0
-0 -0 -0 -0 -0 -0 -0 -0 -0 -0 -0 -0 -0 -0 -0 -0 -0 -1 -0 -0 -0 -1 -4 -12 -2 -3 -2 -0 -0 -2 -0 -31 -24 -50 -51 -54 -106 -117 -0 -0 -0 -0 -0 -0 -0 -0 -0 -0 -0
-0 -0 -0 -0 -0 -0 -0 -0 -0 -0 -0 -0 -0 -0 -0 -0 -4 -3 -0 -0 -0 -0 -0 -1 -5 -0 -0 -0 -0 -0 -8 -30 -7 -1 -26 -55 -85 -113 -0 -0 -0 -0 -0 -0 -0 -0 -0 -0 -0
-0 -0 -0 -0 -0 -0 -0 -0 -0 -0 -0 -0 -0 -0 -0 -0 -2 -3 -0 -0 -0 -0 -13 -0 -0 -13 -3 -9 -0 -0 -0 -12 -13 -15 -1 -1 -5 -15 -32 -0 -0 -0 -0 -0 -0 -0 -0 -0 -0
-0 -0 -0 -0 -0 -0 -0 -0 -0 -0 -0 -0 -0 -0 -0 -0 -7 -10 -0 -0 -0 -1 -22 -0 -5 -0 -0 -0 -1 -9 -1 -0 -0 -0 -0 -2 -0 -2 -26 -0 -0 -0 -0 -0 -0 -0 -0 -0 -0
-0 -0 -0 -0 -0 -0 -0 -0 -0 -0 -0 -0 -0 -0 -0 -0 -8 -0 -0 -0 -0 -1 -15 -27 -6 -2 -3 -0 -23 -0 -13 -9 -0 -0 -0 -0 -1 -0 -39 -0 -0 -0 -0 -0 -0 -0 -0 -0 -0
-0 -0 -0 -0 -0 -0 -0 -0 -0 -0 -0 -3 -2 -2 -2 -0 -0 -0 -0 -0 -0 -0 -4 -3 -6 -9 -1 -0 -6 -22 -1 -3 -3 -0 -0 -8 -11 -4 -0 -0 -0 -2 -6 -0 -0 -0 -0 -0 -0
Wind_Speed
nan nan nan nan nan nan nan nan nan nan nan nan nan nan nan nan nan nan 32 28 32 34 31 31 29 28 28 27 28 25 21 18 16 15 15 16 15 13 12 10 nan 5 6 8 10 11 10 10 11
nan nan nan nan nan nan nan nan nan nan nan nan nan nan nan nan nan 44 35 25 29 33 32 27 27 27 27 28 27 25 22 19 18 17 16 15 16 15 15 12 9 8 8 10 11 13 12 11 10
nan nan nan nan nan nan nan nan nan nan nan nan nan nan nan nan nan nan 35 28 24 31 28 30 31 28 27 27 28 26 24 22 20 19 17 17 16 17 16 15 14 13 11 13 14 13 14 11 9
nan nan nan nan nan nan nan nan nan nan nan nan nan nan nan nan nan nan 37 31 27 31 27 34 30 29 27 26 27 27 25 23 22 20 20 22 21 19 15 19 17 17 16 16 18 17 17 nan nan
nan nan nan nan nan nan nan nan nan nan nan nan nan nan nan nan nan 40 38 34 28 31 26 34 31 31 28 27 26 26 27 27 24 22 23 26 22 17 15 21 20 20 20 20 20 nan nan nan nan
nan nan nan nan nan nan nan nan nan nan nan nan nan nan nan nan 45 41 40 34 32 34 32 32 30 32 32 29 28 27 27 29 26 25 26 24 21 19 20 20 19 22 22 23 nan nan nan nan nan
nan nan nan nan nan nan nan nan nan nan nan nan nan nan nan nan nan 45 42 37 35 44 38 35 29 30 35 32 31 29 28 29 27 28 26 23 26 24 23 20 21 23 25 26 nan nan nan nan nan
nan nan nan nan nan nan nan nan nan nan nan nan nan nan nan nan nan nan 43 42 51 44 39 38 32 31 33 34 34 32 30 28 28 30 nan nan nan 27 25 24 26 26 28 28 nan nan nan nan nan
nan nan nan nan nan nan nan nan nan nan nan nan nan nan nan nan nan 47 42 45 55 46 36 40 37 32 35 33 37 33 31 31 33 nan nan nan nan nan nan nan nan 30 nan nan nan nan nan nan nan
nan nan nan nan nan nan nan nan nan nan nan nan nan nan nan nan 52 39 42 44 51 46 36 43 41 35 37 37 37 nan nan nan nan nan nan nan nan nan 31 nan nan nan nan nan nan nan nan nan nan
nan nan nan nan nan nan nan nan nan nan nan nan nan nan nan nan nan 37 41 39 45 45 41 45 42 40 38 39 38 37 nan nan nan nan nan nan nan 33 nan nan nan nan nan nan nan nan nan nan nan
nan nan nan nan nan nan nan nan nan nan nan nan nan nan nan nan nan 40 42 38 44 44 47 46 44 44 40 40 41 38 nan 34 nan nan nan nan nan 32 30 nan nan nan nan nan nan nan nan nan nan
nan nan nan nan nan nan nan nan nan nan nan nan nan nan nan nan nan 48 41 46 41 39 52 48 48 48 44 41 42 39 nan nan nan nan nan nan nan nan nan nan nan nan nan nan nan nan nan nan nan
nan nan nan nan nan nan nan nan nan nan nan nan nan nan nan nan nan 56 45 45 43 41 49 51 49 50 46 43 40 43 nan nan nan nan nan nan nan nan nan nan nan nan nan nan nan nan nan nan nan
nan nan nan nan nan nan nan nan nan nan nan nan nan nan nan nan nan nan 50 43 47 43 48 50 50 51 48 45 43 46 44 nan nan nan nan nan nan nan nan nan nan nan nan nan nan nan nan nan nan
nan nan nan nan nan nan nan nan nan nan nan nan nan nan nan nan nan nan nan 49 48 46 46 50 53 50 50 49 45 47 47 46 43 nan nan nan nan nan nan nan nan nan nan nan nan nan nan nan nan
nan nan nan nan nan nan nan nan nan nan nan nan nan nan nan nan nan nan nan 53 50 48 47 47 53 49 53 50 47 48 48 48 48 nan nan nan nan nan nan nan nan nan nan nan nan nan nan nan nan
nan nan nan nan nan nan nan nan nan nan nan nan nan nan nan nan nan nan nan nan 50 50 50 47 54 48 57 51 55 51 50 52 51 nan nan nan nan nan nan nan nan nan nan nan nan nan nan nan nan
nan nan nan nan nan nan nan nan nan nan nan nan nan nan nan nan nan nan nan nan 58 52 51 45 53 54 59 59 54 57 53 nan 53 nan nan nan nan nan nan nan nan nan nan nan nan nan nan nan nan
nan nan nan nan nan nan nan nan nan nan nan nan nan nan nan nan nan nan nan nan nan 55 48 40 55 53 56 60 55 55 49 48 nan 47 nan nan nan nan nan nan nan nan nan nan nan nan nan nan nan
nan nan nan nan nan nan nan nan nan nan nan nan nan nan nan nan nan nan nan nan nan 59 49 40 60 53 59 60 56 59 61 58 nan nan nan nan nan nan nan nan nan nan nan nan nan nan nan nan nan
nan nan nan nan nan nan nan nan nan nan nan nan nan nan nan nan nan nan nan nan nan 60 57 56 nan 52 58 58 65 61 64 nan nan nan 45 nan nan nan nan nan nan nan nan nan nan nan nan nan nan
nan nan nan nan nan nan nan nan nan nan nan nan nan nan nan nan nan nan nan nan nan nan 60 53 60 54 61 61 63 nan 49 53 nan nan nan nan nan nan nan nan nan nan nan nan nan nan nan nan nan
nan nan nan nan nan nan nan nan nan nan nan nan nan nan nan nan nan nan nan nan nan 75 67 65 nan 70 60 57 59 59 60 57 nan nan nan nan nan nan nan nan nan nan nan nan nan nan nan nan nan
nan nan nan nan nan nan nan nan nan nan nan nan nan nan nan nan nan nan nan nan nan nan 68 72 nan nan 51 57 59 57 52 nan nan nan nan nan nan nan nan nan nan nan nan nan nan nan nan nan nan
nan nan nan nan nan nan nan nan nan nan nan nan nan nan nan nan nan nan nan nan nan nan 70 57 nan nan nan 48 54 54 45 nan nan nan nan nan nan nan nan nan nan nan nan nan nan nan nan nan nan
nan nan nan nan nan nan nan nan nan nan nan nan nan nan nan nan nan nan nan nan nan nan 70 60 nan nan nan nan 59 54 55 nan nan nan 48 nan 55 48 nan nan nan nan nan nan nan nan nan nan nan
nan nan nan nan nan nan nan nan nan nan nan nan nan nan nan nan nan nan nan nan nan nan 72 71 78 nan nan nan nan nan nan nan nan nan nan nan nan 49 nan nan nan nan nan nan nan nan nan nan nan
nan nan nan nan nan nan nan nan nan nan nan nan nan nan nan nan nan nan nan nan nan nan 74 nan nan nan nan nan nan nan nan nan nan nan nan nan nan nan nan nan nan nan nan nan nan nan nan nan nan
nan nan nan nan nan nan nan nan nan nan nan nan nan nan nan nan nan nan nan nan nan nan 68 nan nan nan nan nan nan nan nan nan nan nan nan nan nan nan nan nan nan nan nan nan nan nan nan nan nan
Wind_Direction
nan nan nan nan nan nan nan nan nan nan nan nan nan nan nan nan nan nan 256 254 274 276 281 287 294 297 290 285 279 275 273 269 263 257 262 263 263 258 238 230 nan 258 268 280 279 264 284 291 283
nan nan nan nan nan nan nan nan nan nan nan nan nan nan nan nan nan 255 261 258 266 277 278 279 287 293 292 288 283 277 272 268 263 258 258 255 259 249 231 231 229 253 256 271 275 264 274 291 292
nan nan nan nan nan nan nan nan nan nan nan nan nan nan nan nan nan nan 246 268 270 271 277 272 282 285 288 287 285 278 271 268 261 256 252 250 251 250 240 225 234 244 257 269 269 262 261 271 282
nan nan nan nan nan nan nan nan nan nan nan nan nan nan nan nan nan nan 252 261 267 271 268 273 278 281 283 282 284 282 273 269 263 252 250 246 240 246 236 238 240 248 261 264 266 264 255 nan nan
nan nan nan nan nan nan nan nan nan nan nan nan nan nan nan nan nan 237 251 259 266 268 265 270 276 277 277 280 281 279 274 269 262 251 242 242 243 247 240 247 244 251 259 264 265 nan nan nan nan
nan nan nan nan nan nan nan nan nan nan nan nan nan nan nan nan 245 244 249 253 264 263 258 265 266 271 273 275 275 272 266 264 259 249 242 242 244 248 257 258 258 259 264 262 nan nan nan nan nan
nan nan nan nan nan nan nan nan nan nan nan nan nan nan nan nan nan 242 247 248 254 257 255 256 261 256 263 263 266 265 258 255 257 252 243 239 237 247 259 264 266 262 262 259 nan nan nan nan nan
nan nan nan nan nan nan nan nan nan nan nan nan nan nan nan nan nan nan 245 250 251 249 250 258 258 254 253 255 256 258 252 249 249 252 nan nan nan 238 254 262 264 260 256 258 nan nan nan nan nan
nan nan nan nan nan nan nan nan nan nan nan nan nan nan nan nan nan 245 241 248 252 245 241 254 253 250 249 246 248 249 248 245 245 nan nan nan nan nan nan nan nan 263 nan nan nan nan nan nan nan
nan nan nan nan nan nan nan nan nan nan nan nan nan nan nan nan 249 246 245 246 256 255 238 252 249 251 247 236 248 nan nan nan nan nan nan nan nan nan 242 nan nan nan nan nan nan nan nan nan nan
nan nan nan nan nan nan nan nan nan nan nan nan nan nan nan nan nan 237 242 243 257 258 247 255 252 251 247 240 234 231 nan nan nan nan nan nan nan 237 nan nan nan nan nan nan nan nan nan nan nan
nan nan nan nan nan nan nan nan nan nan nan nan nan nan nan nan nan 238 239 235 240 249 247 251 252 248 245 240 234 232 nan 235 nan nan nan nan nan 236 237 nan nan nan nan nan nan nan nan nan nan
nan nan nan nan nan nan nan nan nan nan nan nan nan nan nan nan nan 241 233 241 233 241 250 244 248 244 244 245 239 235 nan nan nan nan nan nan nan nan nan nan nan nan nan nan nan nan nan nan nan
nan nan nan nan nan nan nan nan nan nan nan nan nan nan nan nan nan 242 231 236 236 233 244 243 242 244 245 238 242 237 nan nan nan nan nan nan nan nan nan nan nan nan nan nan nan nan nan nan nan
nan nan nan nan nan nan nan nan nan nan nan nan nan nan nan nan nan nan 239 225 238 227 239 243 237 241 242 242 236 235 236 nan nan nan nan nan nan nan nan nan nan nan nan nan nan nan nan nan nan
nan nan nan nan nan nan nan nan nan nan nan nan nan nan nan nan nan nan nan 225 228 228 234 239 233 237 240 238 230 232 236 235 235 nan nan nan nan nan nan nan nan nan nan nan nan nan nan nan nan
nan nan nan nan nan nan nan nan nan nan nan nan nan nan nan nan nan nan nan 227 221 225 229 236 235 237 238 238 231 230 234 232 235 nan nan nan nan nan nan nan nan nan nan nan nan nan nan nan nan
nan nan nan nan nan nan nan nan nan nan nan nan nan nan nan nan nan nan nan nan 223 224 228 234 232 232 235 229 232 226 228 231 235 nan nan nan nan nan nan nan nan nan nan nan nan nan nan nan nan
nan nan nan nan nan nan nan nan nan nan nan nan nan nan nan nan nan nan nan nan 213 218 226 231 234 232 232 228 228 232 226 nan 231 nan nan nan nan nan nan nan nan nan nan nan nan nan nan nan nan
nan nan nan nan nan nan nan nan nan nan nan nan nan nan nan nan nan nan nan nan nan 218 220 218 235 239 234 231 229 236 231 231 nan 233 nan nan nan nan nan nan nan nan nan nan nan nan nan nan nan
nan nan nan nan nan nan nan nan nan nan nan nan nan nan nan nan nan nan nan nan nan 214 215 210 237 227 230 237 228 230 230 227 nan nan nan nan nan nan nan nan nan nan nan nan nan nan nan nan nan
nan nan nan nan nan nan nan nan nan nan nan nan nan nan nan nan nan nan nan nan nan 208 211 231 nan 222 234 238 232 241 241 nan nan nan 234 nan nan nan nan nan nan nan nan nan nan nan nan nan nan
nan nan nan nan nan nan nan nan nan nan nan nan nan nan nan nan nan nan nan nan nan nan 205 213 228 227 232 233 236 nan 241 237 nan nan nan nan nan nan nan nan nan nan nan nan nan nan nan nan nan
nan nan nan nan nan nan nan nan nan nan nan nan nan nan nan nan nan nan nan nan nan 200 202 214 nan 223 220 232 238 236 240 241 nan nan nan nan nan nan nan nan nan nan nan nan nan nan nan nan nan
nan nan nan nan nan nan nan nan nan nan nan nan nan nan nan nan nan nan nan nan nan nan 202 214 nan nan 230 228 235 236 238 nan nan nan nan nan nan nan nan nan nan nan nan nan nan nan nan nan nan
nan nan nan nan nan nan nan nan nan nan nan nan nan nan nan nan nan nan nan nan nan nan 203 210 nan nan nan 226 230 232 237 nan nan nan nan nan nan nan nan nan nan nan nan nan nan nan nan nan nan
nan nan nan nan nan nan nan nan nan nan nan nan nan nan nan nan nan nan nan nan nan nan 202 209 nan nan nan nan 229 232 232 nan nan nan 233 nan 227 225 nan nan nan nan nan nan nan nan nan nan nan
nan nan nan nan nan nan nan nan nan nan nan nan nan nan nan nan nan nan nan nan nan nan 202 204 212 nan nan nan nan nan nan nan nan nan nan nan nan 226 nan nan nan nan nan nan nan nan nan nan nan
nan nan nan nan nan nan nan nan nan nan nan nan nan nan nan nan nan nan nan nan nan nan 205 nan nan nan nan nan nan nan nan nan nan nan nan nan nan nan nan nan nan nan nan nan nan nan nan nan nan
nan nan nan nan nan nan nan nan nan nan nan nan nan nan nan nan nan nan nan nan nan nan 204 nan nan nan nan nan nan nan nan nan nan nan nan nan nan nan nan nan nan nan nan nan nan nan nan nan nan